Location: Aulnoy
(48.8410°N, 3.0967°E)
Time: 00:24:06
(UTC+00:00)

Cosmos 2322 Rocket - Pass Details

Date: 09 February 2023
Orbit: 832 x 851 km, 71.0° (Epoch: 21 March)

Event Time Altitude Azimuth Distance (km) Brightness Sun altitude
Rises 18:28:50 0° 241° (WSW) 3,370 6.6 -15.3°
Reaches altitude 10° 18:31:34 10° 253° (WSW) 2,441 5.9 -15.8°
Maximum altitude 18:36:26 30° 313° (NW) 1,473 3.9 -16.6°
Drops below altitude 10° 18:41:20 10° 14° (NNE) 2,459 4.5 -17.4°
Enters shadow 18:43:54 - 24° (NNE) 3,325 5.0 -17.8°
